KD0OXW Weather Reports


Display with metric or nautical units.
time (UTC)temp
F
wind
direction
speed
MPH
gust
MPH
rain 1hr
in
rain 24hr
in
rain mn
in
humidity
%
barometer
mb
20260503020317 51 5 0.0 0.0 0.00 0.00 0.00 53 1010.6
20260503015817 51 31 0.0 1.0 0.00 0.00 0.00 52 1010.6
20260503015317 52 88 0.0 0.0 0.00 0.00 0.00 52 1010.5
20260503014817 52 88 0.0 2.0 0.00 0.00 0.00 51 1010.6
20260503014317 52 134 0.0 2.0 0.00 0.00 0.00 50 1010.6
20260503013817 53 138 0.0 1.0 0.00 0.00 0.00 50 1010.6
20260503013317 53 145 0.0 2.0 0.00 0.00 0.00 49 1010.6
20260503012817 53 185 1.0 2.0 0.00 0.00 0.00 49 1010.6
20260503012317 54 138 1.0 3.0 0.00 0.00 0.00 47 1010.6
20260503011817 54 213 1.0 3.0 0.00 0.00 0.00 47 1010.6
20260503011317 54 136 1.0 3.0 0.00 0.00 0.00 47 1010.6
20260503010818 55 170 1.0 3.0 0.00 0.00 0.00 46 1010.6
20260503010317 55 170 1.0 4.0 0.00 0.00 0.00 44 1010.7
20260503005817 55 169 0.0 3.0 0.00 0.00 0.00 44 1010.7
20260503005317 55 142 0.0 2.0 0.00 0.00 0.00 44 1010.8
20260503004817 55 272 0.0 0.0 0.00 0.00 0.00 44 1010.8
20260503004317 56 272 0.0 0.0 0.00 0.00 0.00 43 1010.9
20260503003818 56 272 0.0 2.0 0.00 0.00 0.00 42 1011.0
20260503003318 56 186 0.0 3.0 0.00 0.00 0.00 44 1011.0
20260503002818 56 155 0.0 3.0 0.00 0.00 0.00 43 1011.0
20260503002318 56 250 1.0 1.0 0.00 0.00 0.00 42 1011.1
20260503001818 57 250 1.0 2.0 0.00 0.00 0.00 43 1011.1
20260503001318 57 333 1.0 2.0 0.00 0.00 0.00 42 1011.1
20260503000818 57 130 1.0 2.0 0.00 0.00 0.00 42 1011.2
20260503000318 57 82 1.0 3.0 0.00 0.00 0.00 40 1011.3
20260502235818 57 96 1.0 4.0 0.00 0.00 0.00 41 1011.4
20260502235318 57 310 1.0 2.0 0.00 0.00 0.00 40 1011.4
20260502234818 57 269 1.0 3.0 0.00 0.00 0.00 39 1011.5
20260502234318 58 205 1.0 6.0 0.00 0.00 0.00 42 1011.6
20260502233818 58 61 1.0 3.0 0.00 0.00 0.00 38 1011.6
20260502233318 58 240 1.0 2.0 0.00 0.00 0.00 40 1011.6
20260502232818 58 69 1.0 4.0 0.00 0.00 0.00 39 1011.7
20260502232318 58 179 1.0 3.0 0.00 0.00 0.00 38 1011.8
20260502231818 58 240 2.0 4.0 0.00 0.00 0.00 39 1011.8
20260502231318 58 18 2.0 8.0 0.00 0.00 0.00 39 1011.9
20260502230818 58 185 1.0 3.0 0.00 0.00 0.00 38 1012.2
20260502230318 58 250 1.0 5.0 0.00 0.00 0.00 40 1012.0
20260502225818 58 46 1.0 3.0 0.00 0.00 0.00 39 1012.0
20260502225318 59 220 2.0 3.0 0.00 0.00 0.00 36 1011.9
20260502224818 59 219 2.0 5.0 0.00 0.00 0.00 36 1012.1
20260502224318 59 208 2.0 5.0 0.00 0.00 0.00 35 1012.0
20260502223818 60 13 2.0 5.0 0.00 0.00 0.00 36 1012.2
20260502223318 60 312 3.0 9.0 0.00 0.00 0.00 36 1012.2
20260502222818 60 220 3.0 8.0 0.00 0.00 0.00 35 1012.2
20260502222318 60 321 3.0 9.0 0.00 0.00 0.00 34 1012.3
20260502221818 60 252 3.0 8.0 0.00 0.00 0.00 34 1012.4
20260502221318 60 297 3.0 8.0 0.00 0.00 0.00 34 1012.4
20260502220818 60 67 3.0 8.0 0.00 0.00 0.00 33 1012.4
20260502220318 60 313 3.0 9.0 0.00 0.00 0.00 37 1012.5
20260502215818 59 216 3.0 4.0 0.00 0.00 0.00 34 1012.5
20260502215318 60 216 3.0 8.0 0.00 0.00 0.00 34 1012.6
20260502214818 60 121 4.0 8.0 0.00 0.00 0.00 33 1012.7
20260502214318 59 199 4.0 8.0 0.00 0.00 0.00 34 1012.7
20260502213818 59 132 3.0 7.0 0.00 0.00 0.00 33 1012.6
20260502213318 60 219 4.0 9.0 0.00 0.00 0.00 31 1012.7
20260502212818 60 217 4.0 9.0 0.00 0.00 0.00 31 1012.8
20260502212318 61 249 2.0 8.0 0.00 0.00 0.00 33 1012.8
20260502211818 60 142 2.0 5.0 0.00 0.00 0.00 34 1012.8
20260502211318 59 223 2.0 7.0 0.00 0.00 0.00 33 1013.1
20260502210818 59 249 3.0 7.0 0.00 0.00 0.00 33 1013.1
20260502210318 59 328 4.0 9.0 0.00 0.00 0.00 33 1013.2
20260502205818 59 306 5.0 11.0 0.00 0.00 0.00 31 1013.3
20260502205318 59 304 4.0 9.0 0.00 0.00 0.00 32 1013.3
20260502204818 58 84 3.0 9.0 0.00 0.00 0.00 35 1013.4
20260502204318 57 323 3.0 10.0 0.00 0.00 0.00 32 1013.5
20260502203818 57 165 3.0 7.0 0.00 0.00 0.00 33 1013.6
20260502203318 57 286 4.0 10.0 0.00 0.00 0.00 31 1013.6
20260502202818 58 276 4.0 11.0 0.00 0.00 0.00 31 1013.7
20260502202318 58 275 4.0 10.0 0.00 0.00 0.00 31 1013.8
20260502201818 59 246 4.0 17.0 0.00 0.00 0.00 29 1013.8
20260502201318 59 205 4.0 10.0 0.00 0.00 0.00 30 1013.8
20260502200818 59 263 3.0 13.0 0.00 0.00 0.00 30 1014.0
20260502200318 59 116 3.0 9.0 0.00 0.00 0.00 33 1013.9
20260502195818 59 215 3.0 9.0 0.00 0.00 0.00 31 1014.0
20260502195318 59 190 3.0 8.0 0.00 0.00 0.00 38 1014.1
20260502194818 58 17 3.0 11.0 0.00 0.00 0.00 31 1014.3
20260502194318 58 162 5.0 7.0 0.00 0.00 0.00 33 1014.4
20260502193818 58 350 6.0 10.0 0.00 0.00 0.00 29 1014.5
20260502193318 58 164 5.0 15.0 0.00 0.00 0.00 34 1014.6
20260502192818 58 355 4.0 15.0 0.00 0.00 0.00 31 1014.7
20260502192318 57 111 2.0 4.0 0.00 0.00 0.00 30 1014.7
20260502191818 57 53 4.0 11.0 0.00 0.00 0.00 28 1014.9
20260502191318 58 20 4.0 9.0 0.00 0.00 0.00 28 1015.0
20260502190818 58 285 3.0 12.0 0.00 0.00 0.00 32 1015.1
20260502190318 57 290 3.0 6.0 0.00 0.00 0.00 33 1015.1
20260502185818 57 182 4.0 9.0 0.00 0.00 0.00 32 1015.2
20260502185318 56 336 4.0 9.0 0.00 0.00 0.00 34 1015.3
20260502184818 56 309 3.0 9.0 0.00 0.00 0.00 32 1015.5
20260502184318 56 266 4.0 9.0 0.00 0.00 0.00 32 1015.5
20260502183818 56 55 5.0 14.0 0.00 0.00 0.00 32 1015.5
20260502183318 56 271 5.0 16.0 0.00 0.00 0.00 31 1015.7
20260502182818 56 321 4.0 11.0 0.00 0.00 0.00 32 1015.6
20260502182318 56 119 5.0 8.0 0.00 0.00 0.00 36 1015.7
20260502181818 56 180 5.0 13.0 0.00 0.00 0.00 35 1015.9
20260502181318 56 350 4.0 9.0 0.00 0.00 0.00 33 1015.9
20260502180818 56 116 3.0 10.0 0.00 0.00 0.00 32 1015.9
20260502180318 56 350 3.0 7.0 0.00 0.00 0.00 34 1016.0
20260502170319 54 245 6.0 12.0 0.00 0.00 0.00 34 1017.0
20260502164319 54 316 5.0 10.0 0.00 0.00 0.00 34 1017.4
20260502163819 53 205 4.0 8.0 0.00 0.00 0.00 39 1017.3
20260502163319 53 211 4.0 12.0 0.00 0.00 0.00 39 1017.3
20260502162819 52 355 6.0 12.0 0.00 0.00 0.00 36 1017.5
20260502162319 52 340 7.0 13.0 0.00 0.00 0.00 35 1017.6
20260502161819 52 19 5.0 15.0 0.00 0.00 0.00 37 1017.7
20260502161319 52 5 4.0 11.0 0.00 0.00 0.00 35 1017.7
20260502160819 52 5 4.0 9.0 0.00 0.00 0.00 35 1017.8
20260502160319 52 331 5.0 13.0 0.00 0.00 0.00 35 1017.8
20260502152319 51 338 4.0 8.0 0.00 0.00 0.00 39 1018.2
20260502151819 51 312 3.0 8.0 0.00 0.00 0.00 38 1018.3
20260502151319 50 267 3.0 9.0 0.00 0.00 0.00 39 1018.3
20260502150819 50 30 3.0 10.0 0.00 0.00 0.00 39 1018.4
20260502150319 50 198 3.0 5.0 0.00 0.00 0.00 42 1018.4
20260502130319 40 176 2.0 5.0 0.00 0.00 0.00 63 1019.3
20260502123319 34 161 0.0 2.0 0.00 0.00 0.00 89 1019.4
20260502122819 33 188 0.0 0.0 0.00 0.00 0.00 89 1019.4
20260502122319 32 53 0.0 0.0 0.00 0.00 0.00 90 1019.5
20260502121819 31 9 0.0 0.0 0.00 0.00 0.00 91 1019.5
20260502121319 30 9 0.0 0.0 0.00 0.00 0.00 91 1019.5
20260502120819 30 9 0.0 0.0 0.00 0.00 0.00 91 1019.4
20260502120319 29 9 0.0 0.0 0.00 0.00 0.00 91 1019.4
20260502115819 28 9 0.0 0.0 0.00 0.00 0.00 91 1019.4
20260502115319 28 9 0.0 0.0 0.00 0.00 0.00 91 1019.4
20260502114819 27 9 0.0 0.0 0.00 0.00 0.00 92 1019.3
20260502114319 27 9 0.0 0.0 0.00 0.00 0.00 92 1019.3
20260502113819 26 5 0.0 0.0 0.00 0.00 0.00 93 1019.4
20260502113319 26 5 0.0 0.0 0.00 0.00 0.00 93 1019.4
20260502112819 25 5 0.0 0.0 0.00 0.00 0.00 93 1019.4
20260502112319 24 5 0.0 0.0 0.00 0.00 0.00 93 1019.3
20260502111819 24 5 0.0 0.0 0.00 0.00 0.00 92 1019.3
20260502111319 24 5 0.0 0.0 0.00 0.00 0.00 91 1019.3
20260502110819 24 5 0.0 0.0 0.00 0.00 0.00 91 1019.3
20260502110319 24 5 0.0 0.0 0.00 0.00 0.00 91 1019.3
20260502105819 24 5 0.0 0.0 0.00 0.00 0.00 91 1019.2
20260502105320 24 5 0.0 0.0 0.00 0.00 0.00 91 1019.3
20260502104819 24 5 0.0 0.0 0.00 0.00 0.00 91 1019.4
20260502104320 24 5 0.0 0.0 0.00 0.00 0.00 91 1019.4
20260502103820 24 5 0.0 0.0 0.00 0.00 0.00 91 1019.4
20260502103320 24 5 0.0 0.0 0.00 0.00 0.00 91 1019.4
20260502102820 24 5 0.0 0.0 0.00 0.00 0.00 90 1019.4
20260502102320 24 5 0.0 0.0 0.00 0.00 0.00 90 1019.4
20260502101820 24 5 0.0 0.0 0.00 0.00 0.00 90 1019.5
20260502101320 24 5 0.0 0.0 0.00 0.00 0.00 90 1019.5
20260502100820 25 5 0.0 0.0 0.00 0.00 0.00 90 1019.5
20260502100320 25 5 0.0 0.0 0.00 0.00 0.00 90 1019.5
20260502091320 26 5 0.0 0.0 0.00 0.00 0.00 88 1019.6
20260502090820 26 5 0.0 0.0 0.00 0.00 0.00 88 1019.6
20260502090320 26 5 0.0 0.0 0.00 0.00 0.00 89 1019.6
20260502071320 27 5 0.0 0.0 0.00 0.00 0.00 87 1020.1
20260502070820 27 5 0.0 0.0 0.00 0.00 0.00 87 1020.0
20260502070320 27 5 0.0 0.0 0.00 0.00 0.00 87 1020.1
20260502065820 27 5 0.0 0.0 0.00 0.00 0.00 87 1020.1
20260502065320 27 5 0.0 0.0 0.00 0.00 0.00 87 1020.2
20260502064820 26 5 0.0 0.0 0.00 0.00 0.00 87 1020.1
20260502064320 26 5 0.0 0.0 0.00 0.00 0.00 86 1020.2
20260502063820 26 5 0.0 0.0 0.00 0.00 0.00 86 1020.3
20260502063320 26 5 0.0 0.0 0.00 0.00 0.00 86 1020.3
20260502062820 27 5 0.0 0.0 0.00 0.00 0.00 85 1020.3
20260502062320 27 5 0.0 0.0 0.00 0.00 0.00 85 1020.3
20260502061820 27 5 0.0 0.0 0.00 0.00 0.00 85 1020.3
20260502061320 27 5 0.0 0.0 0.00 0.00 0.00 84 1020.3
20260502060820 27 5 0.0 0.0 0.00 0.00 0.00 84 1020.3
20260502060320 27 5 0.0 0.0 0.00 0.00 0.00 84 1020.3
20260502055820 27 5 0.0 0.0 0.00 0.00 0.00 83 1020.3
20260502055320 28 5 0.0 0.0 0.00 0.00 0.00 83 1020.3
20260502054820 28 5 0.0 0.0 0.00 0.00 0.00 82 1020.3
20260502054320 28 5 0.0 0.0 0.00 0.00 0.00 82 1020.3
20260502053820 28 5 0.0 0.0 0.00 0.00 0.00 82 1020.3
20260502053320 28 5 0.0 0.0 0.00 0.00 0.00 82 1020.4
20260502052820 29 5 0.0 0.0 0.00 0.00 0.00 81 1020.3
20260502052320 29 5 0.0 0.0 0.00 0.00 0.00 81 1020.3
20260502051820 29 5 0.0 0.0 0.00 0.00 0.00 80 1020.3
20260502051320 29 5 0.0 0.0 0.00 0.00 0.00 80 1020.3
20260502050820 29 5 0.0 0.0 0.00 0.00 0.00 80 1020.3
20260502050320 29 5 0.0 0.0 0.00 0.00 0.00 80 1020.4
20260502045820 30 5 0.0 0.0 0.00 0.00 0.00 79 1020.4
20260502045320 30 5 0.0 0.0 0.00 0.00 0.00 78 1020.4
20260502044820 30 5 0.0 0.0 0.00 0.00 0.00 78 1020.3
20260502044320 30 5 0.0 0.0 0.00 0.00 0.00 77 1020.3
20260502043820 31 5 0.0 0.0 0.00 0.00 0.00 77 1020.3
20260502043320 31 5 0.0 0.0 0.00 0.00 0.00 77 1020.3
20260502042820 31 5 0.0 0.0 0.00 0.00 0.00 76 1020.3
20260502042320 31 5 0.0 0.0 0.00 0.00 0.00 75 1020.4
20260502041820 32 5 0.0 0.0 0.00 0.00 0.00 75 1020.3
20260502041320 32 5 0.0 0.0 0.00 0.00 0.00 74 1020.4
20260502040820 32 5 0.0 0.0 0.00 0.00 0.00 73 1020.4
20260502040321 32 5 0.0 0.0 0.00 0.00 0.00 73 1020.4
20260502035820 33 5 0.0 0.0 0.00 0.00 0.00 73 1020.4
20260502035320 33 5 0.0 0.0 0.00 0.00 0.00 73 1020.4
20260502034820 33 5 0.0 0.0 0.00 0.00 0.00 72 1020.4
20260502034321 33 5 0.0 0.0 0.00 0.00 0.00 72 1020.4
20260502033821 34 5 0.0 0.0 0.00 0.00 0.00 71 1020.4
20260502033321 34 5 0.0 0.0 0.00 0.00 0.00 70 1020.4
20260502032821 34 5 0.0 0.0 0.00 0.00 0.00 69 1020.5
20260502032321 34 5 0.0 0.0 0.00 0.00 0.00 69 1020.4
20260502031821 35 5 0.0 0.0 0.00 0.00 0.00 70 1020.5
20260502031321 35 5 0.0 0.0 0.00 0.00 0.00 69 1020.4
20260502030821 35 5 0.0 0.0 0.00 0.00 0.00 68 1020.4
20260502030321 36 5 0.0 0.0 0.00 0.00 0.00 67 1020.4
20260502025821 36 11 0.0 0.0 0.00 0.00 0.00 67 1020.4
20260502025321 36 51 0.0 0.0 0.00 0.00 0.00 66 1020.3
20260502024821 36 51 0.0 0.0 0.00 0.00 0.00 66 1020.3
20260502024321 37 51 0.0 0.0 0.00 0.00 0.00 63 1020.3
20260502023821 37 51 0.0 0.0 0.00 0.00 0.00 63 1020.3
20260502023321 37 51 0.0 0.0 0.00 0.00 0.00 63 1020.3
20260502022821 38 51 0.0 0.0 0.00 0.00 0.00 63 1020.2
20260502022321 38 51 0.0 0.0 0.00 0.00 0.00 61 1020.3
20260502021821 38 51 0.0 0.0 0.00 0.00 0.00 61 1020.2
20260502021321 39 51 0.0 0.0 0.00 0.00 0.00 61 1020.2
20260502020821 39 51 0.0 0.0 0.00 0.00 0.00 60 1020.2